When you browse on this site, cookies collect data to enhance your experience and personalize the content and advertising you see.
Visit our Privacy Policy to learn more. By continuing to use the site, you agree to this use of cookies and data.
  • en France
  • Liste des pays
  • À 7 jours
  • Température de l'eau
  • Carte météo
  • Widgets météo
  • user-avatar
    Se connecter

    Météo par heure à Tiranё

    Ce jour, 2 Juin, Mardi

    Heure Température Précipitation Vent Pression Humidité
    00:00 +14°C° 0 mm 2 m/s 751 mmHg 84%
    01:00 +13°C° 0 mm 2 m/s 751 mmHg 84%
    02:00 +13°C° 0 mm 2 m/s 751 mmHg 83%
    03:00 +13°C° 0 mm 2 m/s 751 mmHg 82%
    04:00 +13°C° 0 mm 2 m/s 751 mmHg 81%
    05:00 +15°C° 0 mm 2 m/s 751 mmHg 75%
    06:00 +16°C° 0 mm 1 m/s 751 mmHg 69%
    07:00 +19°C° 0 mm 1 m/s 750 mmHg 62%
    08:00 +21°C° 0 mm 1 m/s 750 mmHg 57%
    09:00 +21°C° 0 mm 2 m/s 750 mmHg 52%
    10:00 +23°C° 0 mm 2 m/s 750 mmHg 47%
    11:00 +22°C° 0 mm 3 m/s 750 mmHg 48%
    12:00 +23°C° 0 mm 4 m/s 750 mmHg 48%
    13:00 +23°C° 0 mm 5 m/s 749 mmHg 49%
    14:00 +22°C° 0 mm 5 m/s 749 mmHg 51%
    15:00 +22°C° 0 mm 4 m/s 749 mmHg 54%
    16:00 +21°C° 0 mm 4 m/s 748 mmHg 56%
    17:00 +20°C° 0 mm 3 m/s 749 mmHg 63%
    18:00 +18°C° 0 mm 2 m/s 749 mmHg 71%
    19:00 +17°C° 0 mm 2 m/s 749 mmHg 78%
    20:00 +16°C° 0 mm 2 m/s 749 mmHg 81%
    21:00 +16°C° 0 mm 2 m/s 749 mmHg 83%
    22:00 +15°C° 0 mm 2 m/s 749 mmHg 85%
    23:00 +15°C° 0.1 mm 2 m/s 749 mmHg 85%

    Demain, 3 Juin, Mercredi

    Heure Température Précipitation Vent Pression Humidité
    00:00 +15°C° 0.1 mm 2 m/s 749 mmHg 85%
    01:00 +13°C° 0.1 mm 3 m/s 749 mmHg 85%
    02:00 +13°C° 0 mm 3 m/s 748 mmHg 84%
    03:00 +13°C° 0 mm 3 m/s 748 mmHg 83%
    04:00 +13°C° 0 mm 4 m/s 748 mmHg 82%
    05:00 +16°C° 0 mm 3 m/s 748 mmHg 75%
    06:00 +17°C° 0 mm 3 m/s 748 mmHg 69%
    07:00 +19°C° 0 mm 3 m/s 748 mmHg 63%
    08:00 +20°C° 0 mm 3 m/s 748 mmHg 59%
    09:00 +23°C° 0 mm 2 m/s 748 mmHg 55%
    10:00 +24°C° 0 mm 2 m/s 748 mmHg 50%
    11:00 +25°C° 0 mm 2 m/s 748 mmHg 49%
    12:00 +25°C° 0 mm 3 m/s 748 mmHg 47%
    13:00 +26°C° 0 mm 3 m/s 748 mmHg 46%
    14:00 +25°C° 0 mm 3 m/s 748 mmHg 47%
    15:00 +25°C° 0 mm 3 m/s 748 mmHg 49%
    16:00 +24°C° 0 mm 3 m/s 748 mmHg 50%
    17:00 +21°C° 0 mm 2 m/s 748 mmHg 60%
    18:00 +20°C° 0 mm 2 m/s 748 mmHg 69%
    19:00 +19°C° 0 mm 1 m/s 748 mmHg 78%
    20:00 +17°C° 0 mm 2 m/s 749 mmHg 80%
    21:00 +17°C° 0 mm 2 m/s 749 mmHg 83%
    22:00 +16°C° 0 mm 2 m/s 750 mmHg 85%
    23:00 +16°C° 0 mm 2 m/s 749 mmHg 84%

    Après-demain, 4 Juin, Jeudi

    Heure Température Précipitation Vent Pression Humidité
    00:00 +14°C° 0 mm 3 m/s 749 mmHg 84%
    01:00 +14°C° 0 mm 3 m/s 749 mmHg 83%
    02:00 +14°C° 0 mm 3 m/s 749 mmHg 79%
    03:00 +14°C° 0 mm 3 m/s 749 mmHg 76%
    04:00 +14°C° 0 mm 4 m/s 749 mmHg 72%
    05:00 +17°C° 0 mm 3 m/s 749 mmHg 65%
    06:00 +19°C° 0 mm 3 m/s 749 mmHg 58%
    07:00 +21°C° 0 mm 3 m/s 749 mmHg 51%
    08:00 +22°C° 0 mm 3 m/s 749 mmHg 48%
    09:00 +25°C° 0 mm 4 m/s 750 mmHg 46%
    10:00 +26°C° 0 mm 4 m/s 750 mmHg 43%
    11:00 +27°C° 0 mm 5 m/s 750 mmHg 42%
    12:00 +27°C° 0 mm 7 m/s 750 mmHg 41%
    13:00 +28°C° 0 mm 8 m/s 750 mmHg 40%
    14:00 +27°C° 0 mm 9 m/s 750 mmHg 42%
    15:00 +27°C° 0 mm 9 m/s 750 mmHg 43%
    16:00 +26°C° 0 mm 10 m/s 750 mmHg 45%
    17:00 +23°C° 0 mm 9 m/s 750 mmHg 52%
    18:00 +21°C° 0 mm 9 m/s 750 mmHg 60%
    19:00 +20°C° 0 mm 8 m/s 750 mmHg 67%
    20:00 +18°C° 0 mm 8 m/s 750 mmHg 69%
    21:00 +17°C° 0 mm 7 m/s 750 mmHg 70%
    22:00 +17°C° 0 mm 7 m/s 750 mmHg 71%
    23:00 +17°C° 0 mm 6 m/s 750 mmHg 70%

    5 Juin, Vendredi

    Heure Température Précipitation Vent Pression Humidité
    00:00 +16°C° 0 mm 5 m/s 750 mmHg 70%
    01:00 +17°C° 0 mm 4 m/s 750 mmHg 69%
    02:00 +17°C° 0 mm 4 m/s 750 mmHg 66%
    03:00 +18°C° 0 mm 4 m/s 749 mmHg 62%
    04:00 +18°C° 0 mm 3 m/s 749 mmHg 59%
    05:00 +19°C° 0 mm 4 m/s 749 mmHg 58%
    06:00 +20°C° 0 mm 4 m/s 750 mmHg 57%
    07:00 +21°C° 0 mm 4 m/s 750 mmHg 57%
    08:00 +20°C° 0.4 mm 5 m/s 750 mmHg 62%
    09:00 +19°C° 0.4 mm 5 m/s 749 mmHg 67%
    10:00 +19°C° 0.4 mm 6 m/s 749 mmHg 72%
    11:00 +18°C° 0.2 mm 7 m/s 749 mmHg 72%
    12:00 +18°C° 0.2 mm 8 m/s 749 mmHg 73%
    13:00 +18°C° 0.2 mm 9 m/s 748 mmHg 74%
    14:00 +18°C° 1.3 mm 7 m/s 748 mmHg 78%
    15:00 +17°C° 1.3 mm 5 m/s 748 mmHg 83%
    16:00 +17°C° 1.3 mm 3 m/s 747 mmHg 88%
    17:00 +17°C° 0.1 mm 3 m/s 747 mmHg 87%
    18:00 +17°C° 0.1 mm 2 m/s 747 mmHg 86%
    19:00 +17°C° 0.1 mm 2 m/s 747 mmHg 85%
    20:00 +17°C° 0.9 mm 3 m/s 747 mmHg 88%
    21:00 +17°C° 0.9 mm 4 m/s 748 mmHg 90%
    22:00 +15°C° 0.9 mm 5 m/s 748 mmHg 92%
    23:00 +15°C° 1.2 mm 5 m/s 747 mmHg 92%

    6 Juin, Samedi

    Heure Température Précipitation Vent Pression Humidité
    00:00 +15°C° 1.2 mm 5 m/s 747 mmHg 91%
    01:00 +15°C° 1.2 mm 5 m/s 747 mmHg 90%
    02:00 +15°C° 0.7 mm 4 m/s 747 mmHg 89%
    03:00 +16°C° 0.7 mm 3 m/s 747 mmHg 89%
    04:00 +16°C° 0.7 mm 3 m/s 747 mmHg 88%
    05:00 +17°C° 0.1 mm 2 m/s 748 mmHg 86%
    06:00 +18°C° 0.1 mm 1 m/s 748 mmHg 84%
    07:00 +18°C° 0.1 mm 1 m/s 748 mmHg 83%
    08:00 +20°C° 0 mm 1 m/s 749 mmHg 76%
    09:00 +21°C° 0 mm 1 m/s 749 mmHg 70%
    10:00 +23°C° 0 mm 1 m/s 749 mmHg 64%
    11:00 +23°C° 0 mm 2 m/s 749 mmHg 64%
    12:00 +24°C° 0 mm 2 m/s 749 mmHg 63%
    13:00 +24°C° 0 mm 3 m/s 749 mmHg 62%
    14:00 +24°C° 0 mm 3 m/s 749 mmHg 63%
    15:00 +24°C° 0 mm 3 m/s 749 mmHg 63%
    16:00 +24°C° 0 mm 3 m/s 749 mmHg 63%
    17:00 +23°C° 0 mm 2 m/s 749 mmHg 70%
    18:00 +20°C° 0 mm 2 m/s 749 mmHg 76%
    19:00 +20°C° 0 mm 1 m/s 750 mmHg 82%
    20:00 +19°C° 0 mm 1 m/s 750 mmHg 84%
    21:00 +19°C° 0 mm 1 m/s 751 mmHg 85%
    22:00 +18°C° 0 mm 1 m/s 751 mmHg 86%
    23:00 +18°C° 0 mm 1 m/s 751 mmHg 87%

    7 Juin, Dimanche

    Heure Température Précipitation Vent Pression Humidité
    00:00 +18°C° 0 mm 1 m/s 751 mmHg 87%
    01:00 +16°C° 0 mm 1 m/s 751 mmHg 88%
    02:00 +16°C° 0 mm 1 m/s 751 mmHg 88%
    03:00 +16°C° 0 mm 1 m/s 751 mmHg 88%
    04:00 +16°C° 0 mm 2 m/s 751 mmHg 88%
    05:00 +18°C° 0 mm 2 m/s 751 mmHg 82%
    06:00 +19°C° 0 mm 2 m/s 751 mmHg 76%
    07:00 +21°C° 0 mm 2 m/s 752 mmHg 69%
    08:00 +24°C° 0 mm 2 m/s 752 mmHg 63%
    09:00 +25°C° 0 mm 2 m/s 752 mmHg 56%
    10:00 +26°C° 0 mm 2 m/s 752 mmHg 50%
    11:00 +27°C° 0 mm 3 m/s 752 mmHg 51%
    12:00 +27°C° 0 mm 3 m/s 752 mmHg 52%
    13:00 +28°C° 0 mm 4 m/s 752 mmHg 53%
    14:00 +27°C° 0 mm 3 m/s 751 mmHg 54%
    15:00 +27°C° 0 mm 3 m/s 751 mmHg 56%
    16:00 +26°C° 0 mm 2 m/s 751 mmHg 57%
    17:00 +25°C° 0 mm 3 m/s 751 mmHg 64%
    18:00 +22°C° 0 mm 3 m/s 751 mmHg 71%
    19:00 +20°C° 0 mm 3 m/s 752 mmHg 78%
    20:00 +20°C° 0 mm 3 m/s 752 mmHg 79%
    21:00 +19°C° 0 mm 2 m/s 752 mmHg 80%
    22:00 +19°C° 0 mm 2 m/s 752 mmHg 81%
    23:00 +19°C° 0 mm 2 m/s 752 mmHg 80%
    Voir plus